Portada
METAR-TAF:

METAR-TAF

Aeropuertos :

Kasane, Botsuana

latitud: 17-49S, longitud: 025-09E, altitud: 968 m

METAR: falta

Hora: 09:21 (07:21 UTC)

Pronóstico

El informe se hizo hace 4 horas y 21 minutos, a las 03:00 UTC
Pronóstico válido del 20 a las 06 UTC al 20 a las 15 UTC
Viento 10 kt del este
Visibilidad 10 km o más
sin nubes por debajo de 1500 m y sin presencia de cumulonimbus.

TAF: FBKE 200300Z 2006/2015 09010KT CAVOK

Observaciones y pronósticos meteorológicos de más de 4000 aeropuertos (mensajes METAR y TAF).

Los puntos amarillos y rojos representan las estaciones disponibles.

Ponga el ratón en el punto deseado para ver el nombre de la estación.

Haga clic para ver las observaciones y los pronósticos meteorológicos.

Para cambiar el mapa : haga clic en los botones verdes con una cruz de color negro para hacer un zoom, en el botón verde con un guión para alejar o en las flechas verdes para mapas adyacentes.


METAR-TAF: